Location: Goll?ig?dem
(16.6773°N, 80.7332°E)
Time: 01:23:15
(UTC+00:00)

Cosmos 724 - Pass Details

Date: 19 May 2025
Orbit: 847 x 947 km, 65.6° (Epoch: 18 June)

Event Time Altitude Azimuth Distance (km) Brightness Sun altitude
Rises 14:04:57 0° 338° (NNW) 3,604 8.3 -14.6°
Reaches altitude 10° 14:07:30 10° 340° (NNW) 2,653 7.5 -15.1°
Maximum altitude 14:13:43 83° 68° (ENE) 940 4.3 -16.5°
Enters shadow 14:18:09 20° 155° (SSE) 2,003 5.7 -17.4°
